When you browse on this site, cookies collect data to enhance your experience and personalize the content and advertising you see.
Visit our Privacy Policy to learn more. By continuing to use the site, you agree to this use of cookies and data.
  • en France
  • Liste des pays
  • À 7 jours
  • Température de l'eau
  • Carte météo
  • Widgets météo
  • user-avatar
    Se connecter

    Météo par heure à Trowbridge

    Ce jour, 21 Novembre, Jeudi

    Heure Température Précipitation Vent Pression Humidité
    00:00 +2°C° 0 mm 5 m/s 750 mmHg 92%
    01:00 +3°C° 0 mm 5 m/s 749 mmHg 90%
    02:00 +3°C° 0 mm 5 m/s 749 mmHg 89%
    03:00 +5°C° 0 mm 5 m/s 748 mmHg 88%
    04:00 +5°C° 0 mm 5 m/s 748 mmHg 88%
    05:00 +5°C° 0 mm 5 m/s 748 mmHg 88%
    06:00 +5°C° 0 mm 5 m/s 748 mmHg 89%
    07:00 +5°C° 0 mm 5 m/s 748 mmHg 88%
    08:00 +4°C° 0 mm 6 m/s 748 mmHg 87%
    09:00 +5°C° 0 mm 6 m/s 747 mmHg 86%
    10:00 +5°C° 0 mm 6 m/s 747 mmHg 85%
    11:00 +7°C° 0 mm 6 m/s 747 mmHg 84%
    12:00 +7°C° 0 mm 6 m/s 747 mmHg 83%
    13:00 +7°C° 0 mm 6 m/s 746 mmHg 83%
    14:00 +7°C° 0 mm 6 m/s 746 mmHg 84%
    15:00 +7°C° 0 mm 5 m/s 745 mmHg 85%
    16:00 +7°C° 0.4 mm 5 m/s 745 mmHg 88%
    17:00 +6°C° 0.4 mm 5 m/s 745 mmHg 90%
    18:00 +6°C° 0.4 mm 5 m/s 744 mmHg 93%
    19:00 +6°C° 0.6 mm 5 m/s 744 mmHg 94%
    20:00 +7°C° 0.6 mm 4 m/s 744 mmHg 95%
    21:00 +7°C° 0.6 mm 4 m/s 743 mmHg 96%
    22:00 +7°C° 0.2 mm 4 m/s 743 mmHg 95%
    23:00 +7°C° 0.2 mm 4 m/s 743 mmHg 94%

    Demain, 22 Novembre, Vendredi

    Heure Température Précipitation Vent Pression Humidité
    00:00 +6°C° 0.2 mm 4 m/s 742 mmHg 93%
    01:00 +6°C° 0.1 mm 4 m/s 742 mmHg 93%
    02:00 +6°C° 0.1 mm 4 m/s 742 mmHg 92%
    03:00 +6°C° 0.1 mm 4 m/s 741 mmHg 92%
    04:00 +6°C° 0.2 mm 4 m/s 741 mmHg 91%
    05:00 +6°C° 0.2 mm 4 m/s 742 mmHg 91%
    06:00 +6°C° 0.2 mm 4 m/s 742 mmHg 90%
    07:00 +6°C° 0.3 mm 4 m/s 742 mmHg 91%
    08:00 +7°C° 0.3 mm 3 m/s 742 mmHg 91%
    09:00 +7°C° 0.3 mm 3 m/s 742 mmHg 92%
    10:00 +8°C° 0.4 mm 3 m/s 742 mmHg 88%
    11:00 +8°C° 0.4 mm 4 m/s 742 mmHg 85%
    12:00 +10°C° 0.4 mm 4 m/s 742 mmHg 81%
    13:00 +8°C° 0.3 mm 4 m/s 742 mmHg 83%
    14:00 +9°C° 0.3 mm 3 m/s 742 mmHg 85%
    15:00 +9°C° 0.3 mm 3 m/s 742 mmHg 87%
    16:00 +7°C° 0.1 mm 4 m/s 742 mmHg 88%
    17:00 +7°C° 0.1 mm 4 m/s 742 mmHg 88%
    18:00 +7°C° 0.1 mm 5 m/s 742 mmHg 89%
    19:00 +7°C° 0 mm 5 m/s 742 mmHg 88%
    20:00 +7°C° 0 mm 5 m/s 741 mmHg 88%
    21:00 +7°C° 0 mm 5 m/s 741 mmHg 87%
    22:00 +7°C° 0 mm 6 m/s 741 mmHg 88%
    23:00 +7°C° 0 mm 6 m/s 741 mmHg 89%

    Après-demain, 23 Novembre, Samedi

    Heure Température Précipitation Vent Pression Humidité
    00:00 +6°C° 0 mm 7 m/s 740 mmHg 90%
    01:00 +6°C° 0.2 mm 7 m/s 740 mmHg 90%
    02:00 +6°C° 0.2 mm 7 m/s 740 mmHg 91%
    03:00 +6°C° 0.2 mm 7 m/s 739 mmHg 91%
    04:00 +8°C° 0.8 mm 7 m/s 739 mmHg 91%
    05:00 +8°C° 0.8 mm 7 m/s 739 mmHg 92%
    06:00 +8°C° 0.8 mm 7 m/s 739 mmHg 92%
    07:00 +6°C° 0.7 mm 7 m/s 739 mmHg 93%
    08:00 +7°C° 0.7 mm 6 m/s 739 mmHg 93%
    09:00 +7°C° 0.7 mm 6 m/s 739 mmHg 94%
    10:00 +8°C° 0.7 mm 6 m/s 740 mmHg 94%
    11:00 +8°C° 0.7 mm 5 m/s 740 mmHg 94%
    12:00 +8°C° 0.7 mm 5 m/s 740 mmHg 94%
    13:00 +8°C° 0.4 mm 4 m/s 740 mmHg 94%
    14:00 +8°C° 0.4 mm 4 m/s 741 mmHg 94%
    15:00 +8°C° 0.4 mm 4 m/s 741 mmHg 95%
    16:00 +8°C° 0 mm 3 m/s 741 mmHg 95%
    17:00 +8°C° 0 mm 2 m/s 742 mmHg 96%
    18:00 +8°C° 0 mm 2 m/s 743 mmHg 97%
    19:00 +8°C° 0 mm 2 m/s 743 mmHg 97%
    20:00 +8°C° 0 mm 2 m/s 744 mmHg 97%
    21:00 +8°C° 0 mm 2 m/s 745 mmHg 97%
    22:00 +8°C° 0 mm 2 m/s 745 mmHg 97%
    23:00 +8°C° 0 mm 2 m/s 746 mmHg 96%

    24 Novembre, Dimanche

    Heure Température Précipitation Vent Pression Humidité
    00:00 +9°C° 0 mm 2 m/s 746 mmHg 96%
    01:00 +9°C° 0 mm 1 m/s 746 mmHg 96%
    02:00 +9°C° 0 mm 1 m/s 747 mmHg 96%
    03:00 +8°C° 0 mm 1 m/s 747 mmHg 96%
    04:00 +8°C° 0 mm 1 m/s 748 mmHg 96%
    05:00 +8°C° 0 mm 1 m/s 748 mmHg 96%
    06:00 +8°C° 0 mm 1 m/s 749 mmHg 96%
    07:00 +9°C° 0 mm 1 m/s 749 mmHg 96%
    08:00 +8°C° 0 mm 2 m/s 750 mmHg 96%
    09:00 +9°C° 0 mm 2 m/s 750 mmHg 96%
    10:00 +9°C° 0 mm 3 m/s 750 mmHg 93%
    11:00 +10°C° 0 mm 4 m/s 751 mmHg 90%
    12:00 +9°C° 0 mm 5 m/s 751 mmHg 87%
    13:00 +10°C° 0 mm 4 m/s 751 mmHg 87%
    14:00 +10°C° 0 mm 4 m/s 751 mmHg 87%
    15:00 +8°C° 0 mm 4 m/s 751 mmHg 87%
    16:00 +8°C° 0.1 mm 4 m/s 751 mmHg 88%
    17:00 +8°C° 0.1 mm 5 m/s 751 mmHg 90%
    18:00 +8°C° 0.1 mm 5 m/s 751 mmHg 92%
    19:00 +9°C° 0.2 mm 6 m/s 751 mmHg 91%
    20:00 +9°C° 0.2 mm 7 m/s 750 mmHg 91%
    21:00 +9°C° 0.2 mm 8 m/s 750 mmHg 90%
    22:00 +10°C° 0.2 mm 8 m/s 750 mmHg 91%
    23:00 +10°C° 0.2 mm 8 m/s 749 mmHg 91%

    25 Novembre, Lundi

    Heure Température Précipitation Vent Pression Humidité
    00:00 +10°C° 0.2 mm 8 m/s 749 mmHg 92%
    01:00 +10°C° 0.6 mm 8 m/s 748 mmHg 92%
    02:00 +10°C° 0.6 mm 8 m/s 748 mmHg 92%
    03:00 +11°C° 0.6 mm 9 m/s 748 mmHg 92%
    04:00 +11°C° 0.7 mm 9 m/s 748 mmHg 93%
    05:00 +11°C° 0.7 mm 9 m/s 747 mmHg 93%
    06:00 +11°C° 0.7 mm 9 m/s 747 mmHg 93%
    07:00 +11°C° 0.4 mm 8 m/s 747 mmHg 93%
    08:00 +11°C° 0.4 mm 7 m/s 748 mmHg 93%
    09:00 +11°C° 0.4 mm 6 m/s 748 mmHg 93%
    10:00 +11°C° 0 mm 6 m/s 748 mmHg 90%
    11:00 +11°C° 0 mm 6 m/s 748 mmHg 86%
    12:00 +11°C° 0 mm 6 m/s 749 mmHg 83%
    13:00 +11°C° 0 mm 6 m/s 749 mmHg 82%
    14:00 +10°C° 0 mm 5 m/s 749 mmHg 82%
    15:00 +10°C° 0 mm 5 m/s 750 mmHg 82%
    16:00 +9°C° 0 mm 5 m/s 750 mmHg 84%
    17:00 +9°C° 0 mm 5 m/s 750 mmHg 86%
    18:00 +8°C° 0 mm 5 m/s 750 mmHg 88%
    19:00 +8°C° 0 mm 5 m/s 751 mmHg 89%
    20:00 +7°C° 0 mm 5 m/s 751 mmHg 89%
    21:00 +7°C° 0 mm 4 m/s 752 mmHg 90%
    22:00 +7°C° 0 mm 4 m/s 752 mmHg 90%
    23:00 +7°C° 0 mm 4 m/s 752 mmHg 90%

    26 Novembre, Mardi

    Heure Température Précipitation Vent Pression Humidité
    00:00 +6°C° 0 mm 4 m/s 752 mmHg 90%
    01:00 +6°C° 0 mm 4 m/s 752 mmHg 90%
    02:00 +6°C° 0 mm 4 m/s 752 mmHg 90%
    03:00 +7°C° 0 mm 3 m/s 752 mmHg 89%
    04:00 +7°C° 0 mm 3 m/s 752 mmHg 89%
    05:00 +7°C° 0 mm 3 m/s 752 mmHg 90%
    06:00 +7°C° 0 mm 3 m/s 752 mmHg 90%
    07:00 +8°C° 0 mm 3 m/s 752 mmHg 89%
    08:00 +8°C° 0 mm 3 m/s 752 mmHg 88%
    09:00 +9°C° 0 mm 3 m/s 751 mmHg 87%
    10:00 +10°C° 0 mm 4 m/s 751 mmHg 86%
    11:00 +10°C° 0 mm 5 m/s 750 mmHg 86%
    12:00 +10°C° 0 mm 6 m/s 750 mmHg 85%
    13:00 +10°C° 0 mm 6 m/s 749 mmHg 86%
    14:00 +10°C° 0 mm 6 m/s 748 mmHg 87%
    15:00 +10°C° 0 mm 6 m/s 748 mmHg 89%
    16:00 +10°C° 0.1 mm 6 m/s 747 mmHg 89%
    17:00 +10°C° 0.1 mm 6 m/s 746 mmHg 90%
    18:00 +10°C° 0.1 mm 6 m/s 745 mmHg 90%
    19:00 +10°C° 0.5 mm 7 m/s 745 mmHg 91%
    20:00 +10°C° 0.5 mm 7 m/s 744 mmHg 92%
    21:00 +11°C° 0.5 mm 8 m/s 743 mmHg 93%
    22:00 +10°C° 0.4 mm 7 m/s 742 mmHg 92%
    23:00 +10°C° 0.4 mm 6 m/s 742 mmHg 91%
    Voir plus